Time,TemperatureF,DewpointF,PressureIn,WindDirection,WindDirectionDegrees,WindSpeedMPH,WindSpeedGustMPH,Humidity,HourlyPrecipIn,Conditions,Clouds,dailyrainin,SoftwareType,DateUTC
2013-01-20 00:02:00,52.5,37.3,29.32,ESE,121,0.0,0.0,56,0.00,,,0.00,LWC V2.10 B1813,2013-01-20 06:02:00,
2013-01-20 00:07:00,51.6,36.9,29.32,East,90,0.0,2.2,57,0.00,,,0.00,LWC V2.10 B1813,2013-01-20 06:07:00,
2013-01-20 00:12:00,51.4,37.2,29.32,East,90,0.0,0.0,58,0.00,,,0.00,LWC V2.10 B1813,2013-01-20 06:12:00,
2013-01-20 00:17:00,51.4,37.6,29.32,East,90,0.0,0.0,59,0.00,,,0.00,LWC V2.10 B1813,2013-01-20 06:17:00,
2013-01-20 00:22:00,51.8,37.9,29.32,East,90,2.2,2.2,59,0.00,,,0.00,LWC V2.10 B1813,2013-01-20 06:22:00,
2013-01-20 00:27:00,51.8,37.5,29.32,East,90,2.2,3.1,58,0.00,,,0.00,LWC V2.10 B1813,2013-01-20 06:27:00,
2013-01-20 00:32:00,51.6,37.8,29.32,East,98,2.2,2.7,59,0.00,,,0.00,LWC V2.10 B1813,2013-01-20 06:32:00,
2013-01-20 00:37:00,51.6,37.8,29.32,SE,142,0.0,3.6,59,0.00,,,0.00,LWC V2.10 B1813,2013-01-20 06:37:00,
2013-01-20 00:42:00,51.4,38.0,29.32,ESE,114,0.0,0.0,60,0.00,,,0.00,LWC V2.10 B1813,2013-01-20 06:42:00,
2013-01-20 00:47:00,51.3,37.9,29.32,SSE,149,0.0,2.2,60,0.00,,,0.00,LWC V2.10 B1813,2013-01-20 06:47:00,
2013-01-20 00:52:00,51.1,38.1,29.32,SSE,151,0.0,0.0,61,0.00,,,0.00,LWC V2.10 B1813,2013-01-20 06:52:00,
2013-01-20 00:57:00,50.7,37.8,29.32,ESE,120,0.0,0.0,61,0.00,,,0.00,LWC V2.10 B1813,2013-01-20 06:57:00,
2013-01-20 01:02:00,50.7,37.8,29.32,SE,141,0.0,0.0,61,0.00,,,0.00,LWC V2.10 B1813,2013-01-20 07:02:00,
2013-01-20 01:07:00,50.7,37.8,29.32,SE,141,0.0,0.0,61,0.00,,,0.00,LWC V2.10 B1813,2013-01-20 07:07:00,
2013-01-20 01:12:00,50.9,37.9,29.32,SE,141,0.0,0.0,61,0.00,,,0.00,LWC V2.10 B1813,2013-01-20 07:12:00,
2013-01-20 01:17:00,51.3,38.3,29.32,SSE,159,4.0,4.9,61,0.00,,,0.00,LWC V2.10 B1813,2013-01-20 07:17:00,
2013-01-20 01:22:00,51.1,38.5,29.32,South,173,2.2,3.6,62,0.00,,,0.00,LWC V2.10 B1813,2013-01-20 07:22:00,
2013-01-20 01:27:00,51.1,38.9,29.32,SE,146,3.1,7.6,63,0.00,,,0.00,LWC V2.10 B1813,2013-01-20 07:27:00,
2013-01-20 01:32:00,51.3,39.5,29.32,South,177,4.0,5.4,64,0.00,,,0.00,LWC V2.10 B1813,2013-01-20 07:32:00,
2013-01-20 01:37:00,51.1,39.3,29.32,South,176,3.1,4.0,64,0.00,,,0.00,LWC V2.10 B1813,2013-01-20 07:37:00,
2013-01-20 01:42:00,50.9,39.2,29.32,South,174,0.0,0.0,64,0.00,,,0.00,LWC V2.10 B1813,2013-01-20 07:42:00,
2013-01-20 01:47:00,50.7,39.0,29.32,South,173,0.0,0.0,64,0.00,,,0.00,LWC V2.10 B1813,2013-01-20 07:47:00,
2013-01-20 01:52:00,50.5,38.8,29.32,SSE,157,2.7,2.7,64,0.00,,,0.00,LWC V2.10 B1813,2013-01-20 07:52:00,
2013-01-20 01:57:00,50.5,39.2,29.32,SSE,156,0.0,3.1,65,0.00,,,0.00,LWC V2.10 B1813,2013-01-20 07:57:00,
2013-01-20 02:02:00,50.4,39.0,29.32,SSE,159,0.0,0.0,65,0.00,,,0.00,LWC V2.10 B1813,2013-01-20 08:02:00,
2013-01-20 02:07:00,50.5,39.6,29.32,SSE,159,0.0,0.0,66,0.00,,,0.00,LWC V2.10 B1813,2013-01-20 08:07:00,
2013-01-20 02:12:00,50.7,39.4,29.32,SW,229,0.0,0.0,65,0.00,,,0.00,LWC V2.10 B1813,2013-01-20 08:12:00,
2013-01-20 02:17:00,50.7,39.4,29.32,WSW,249,0.0,0.0,65,0.00,,,0.00,LWC V2.10 B1813,2013-01-20 08:17:00,
2013-01-20 02:22:00,50.7,39.4,29.32,WSW,251,0.0,0.0,65,0.00,,,0.00,LWC V2.10 B1813,2013-01-20 08:22:00,
2013-01-20 02:27:00,50.7,39.0,29.32,WNW,285,3.1,3.1,64,0.00,,,0.00,LWC V2.10 B1813,2013-01-20 08:27:00,
2013-01-20 02:33:00,50.9,39.2,29.32,West,271,3.1,3.1,64,0.00,,,0.00,LWC V2.10 B1813,2013-01-20 08:33:00,
2013-01-20 02:38:00,50.9,39.2,29.32,WSW,247,3.1,3.1,64,0.00,,,0.00,LWC V2.10 B1813,2013-01-20 08:38:00,
2013-01-20 02:43:00,50.7,39.4,29.32,West,261,2.2,3.6,65,0.00,,,0.00,LWC V2.10 B1813,2013-01-20 08:43:00,
2013-01-20 02:48:00,50.4,39.0,29.29,WSW,248,2.2,3.6,65,0.00,,,0.00,LWC V2.10 B1813,2013-01-20 08:48:00,
2013-01-20 02:53:00,50.0,38.7,29.29,West,264,3.1,3.6,65,0.00,,,0.00,LWC V2.10 B1813,2013-01-20 08:53:00,
2013-01-20 02:58:00,50.0,38.7,29.29,NNW,345,3.1,3.1,65,0.00,,,0.00,LWC V2.10 B1813,2013-01-20 08:58:00,
2013-01-20 03:03:00,49.3,38.0,29.32,North,353,2.7,2.7,65,0.00,,,0.00,LWC V2.10 B1813,2013-01-20 09:03:00,
2013-01-20 03:08:00,48.7,37.5,29.32,North,353,2.2,2.7,65,0.00,,,0.00,LWC V2.10 B1813,2013-01-20 09:08:00,
2013-01-20 03:13:00,48.4,37.6,29.32,NNW,334,2.7,2.7,66,0.00,,,0.00,LWC V2.10 B1813,2013-01-20 09:13:00,
2013-01-20 03:18:00,48.6,37.7,29.32,North,353,2.2,3.1,66,0.00,,,0.00,LWC V2.10 B1813,2013-01-20 09:18:00,
2013-01-20 03:23:00,48.7,37.9,29.32,WNW,286,0.0,0.0,66,0.00,,,0.00,LWC V2.10 B1813,2013-01-20 09:23:00,
2013-01-20 03:28:00,49.1,38.6,29.32,WSW,241,0.0,0.0,67,0.00,,,0.00,LWC V2.10 B1813,2013-01-20 09:28:00,
2013-01-20 03:33:00,49.3,38.8,29.32,WNW,294,0.0,2.2,67,0.00,,,0.00,LWC V2.10 B1813,2013-01-20 09:33:00,
2013-01-20 03:38:00,49.5,39.0,29.32,WNW,294,0.0,0.0,67,0.00,,,0.00,LWC V2.10 B1813,2013-01-20 09:38:00,
2013-01-20 03:43:00,49.5,39.0,29.32,NNW,329,2.7,2.7,67,0.00,,,0.00,LWC V2.10 B1813,2013-01-20 09:43:00,
2013-01-20 03:48:00,49.3,38.8,29.32,NNW,334,2.2,3.1,67,0.00,,,0.00,LWC V2.10 B1813,2013-01-20 09:48:00,
2013-01-20 03:53:00,49.3,38.8,29.32,WNW,298,3.6,3.6,67,0.00,,,0.00,LWC V2.10 B1813,2013-01-20 09:53:00,
2013-01-20 03:58:00,49.8,39.7,29.32,WNW,297,2.2,2.7,68,0.00,,,0.00,LWC V2.10 B1813,2013-01-20 09:58:00,
2013-01-20 04:03:00,50.0,39.5,29.32,WNW,284,0.0,2.2,67,0.00,,,0.00,LWC V2.10 B1813,2013-01-20 10:03:00,
2013-01-20 04:08:00,50.0,39.5,29.32,WNW,290,0.0,0.0,67,0.00,,,0.00,LWC V2.10 B1813,2013-01-20 10:08:00,
2013-01-20 04:13:00,50.2,39.7,29.32,West,273,2.2,3.1,67,0.00,,,0.00,LWC V2.10 B1813,2013-01-20 10:13:00,
2013-01-20 04:18:00,50.0,39.5,29.32,West,271,0.0,0.0,67,0.00,,,0.00,LWC V2.10 B1813,2013-01-20 10:18:00,
2013-01-20 04:23:00,50.2,39.7,29.32,West,272,3.6,3.6,67,0.00,,,0.00,LWC V2.10 B1813,2013-01-20 10:23:00,
2013-01-20 04:28:00,50.2,40.0,29.32,West,273,0.0,0.0,68,0.00,,,0.00,LWC V2.10 B1813,2013-01-20 10:28:00,
2013-01-20 04:33:00,50.0,39.9,29.29,WNW,284,0.0,0.0,68,0.00,,,0.00,LWC V2.10 B1813,2013-01-20 10:33:00,
2013-01-20 04:38:00,49.8,39.7,29.29,WNW,285,0.0,0.0,68,0.00,,,0.00,LWC V2.10 B1813,2013-01-20 10:38:00,
2013-01-20 04:43:00,50.0,39.9,29.29,West,281,2.2,2.7,68,0.00,,,0.00,LWC V2.10 B1813,2013-01-20 10:43:00,
2013-01-20 04:48:00,50.0,40.2,29.29,West,272,2.2,3.1,69,0.00,,,0.00,LWC V2.10 B1813,2013-01-20 10:48:00,
2013-01-20 04:53:00,50.0,40.2,29.29,WSW,245,2.7,3.1,69,0.00,,,0.00,LWC V2.10 B1813,2013-01-20 10:53:00,
2013-01-20 04:56:00,50.0,40.6,29.29,SW,229,4.0,4.0,70,0.00,,,0.00,LWC V2.10 B1813,2013-01-20 10:56:00,
2013-01-20 05:01:00,49.6,40.3,29.29,SW,234,3.1,3.1,70,0.00,,,0.00,LWC V2.10 B1813,2013-01-20 11:01:00,
2013-01-20 05:06:00,49.6,40.6,29.29,WSW,249,3.1,3.1,71,0.00,,,0.00,LWC V2.10 B1813,2013-01-20 11:06:00,
2013-01-20 05:11:00,49.8,40.8,29.29,West,264,3.6,4.0,71,0.00,,,0.00,LWC V2.10 B1813,2013-01-20 11:11:00,
2013-01-20 05:16:00,49.6,40.6,29.29,West,260,3.1,4.0,71,0.00,,,0.00,LWC V2.10 B1813,2013-01-20 11:16:00,
2013-01-20 05:21:00,49.3,40.3,29.29,West,277,2.2,3.1,71,0.00,,,0.00,LWC V2.10 B1813,2013-01-20 11:21:00,
2013-01-20 05:26:00,49.3,40.3,29.29,WSW,256,2.7,3.6,71,0.00,,,0.00,LWC V2.10 B1813,2013-01-20 11:26:00,
2013-01-20 05:31:00,49.1,40.1,29.29,WSW,255,2.7,3.1,71,0.00,,,0.00,LWC V2.10 B1813,2013-01-20 11:31:00,
2013-01-20 05:36:00,49.3,40.6,29.29,WSW,254,2.7,3.1,72,0.00,,,0.00,LWC V2.10 B1813,2013-01-20 11:36:00,
2013-01-20 05:41:00,48.9,40.3,29.29,WSW,258,2.2,3.1,72,0.00,,,0.00,LWC V2.10 B1813,2013-01-20 11:41:00,
2013-01-20 05:46:00,48.2,39.2,29.29,West,261,0.0,0.0,71,0.00,,,0.00,LWC V2.10 B1813,2013-01-20 11:46:00,
2013-01-20 05:51:00,47.3,38.7,29.29,West,261,0.0,0.0,72,0.00,,,0.00,LWC V2.10 B1813,2013-01-20 11:51:00,
2013-01-20 05:56:00,47.3,39.1,29.29,West,261,0.0,0.0,73,0.00,,,0.00,LWC V2.10 B1813,2013-01-20 11:56:00,
2013-01-20 06:01:00,47.1,38.9,29.29,West,261,0.0,0.0,73,0.00,,,0.00,LWC V2.10 B1813,2013-01-20 12:01:00,
2013-01-20 06:06:00,46.9,39.1,29.29,West,261,0.0,0.0,74,0.00,,,0.00,LWC V2.10 B1813,2013-01-20 12:06:00,
2013-01-20 06:11:00,46.4,38.6,29.29,West,261,0.0,0.0,74,0.00,,,0.00,LWC V2.10 B1813,2013-01-20 12:11:00,
2013-01-20 06:16:00,45.9,38.4,29.29,WSW,245,0.0,0.0,75,0.00,,,0.00,LWC V2.10 B1813,2013-01-20 12:16:00,
2013-01-20 06:21:00,45.1,37.7,29.29,WSW,244,0.0,0.0,75,0.00,,,0.00,LWC V2.10 B1813,2013-01-20 12:21:00,
2013-01-20 06:26:00,44.8,37.7,29.29,WSW,244,2.2,2.7,76,0.00,,,0.00,LWC V2.10 B1813,2013-01-20 12:26:00,
2013-01-20 06:31:00,44.1,37.0,29.29,WSW,243,0.0,2.2,76,0.00,,,0.00,LWC V2.10 B1813,2013-01-20 12:31:00,
2013-01-20 06:36:00,43.5,36.5,29.29,WSW,243,0.0,0.0,76,0.00,,,0.00,LWC V2.10 B1813,2013-01-20 12:36:00,
2013-01-20 06:42:00,43.3,36.3,29.29,SW,233,0.0,3.1,76,0.00,,,0.00,LWC V2.10 B1813,2013-01-20 12:42:00,
2013-01-20 06:47:00,43.0,35.9,29.29,SW,233,0.0,0.0,76,0.00,,,0.00,LWC V2.10 B1813,2013-01-20 12:47:00,
2013-01-20 06:52:00,43.0,36.3,29.29,SW,233,0.0,0.0,77,0.00,,,0.00,LWC V2.10 B1813,2013-01-20 12:52:00,
2013-01-20 06:57:00,43.0,36.3,29.29,SW,233,0.0,0.0,77,0.00,,,0.00,LWC V2.10 B1813,2013-01-20 12:57:00,
2013-01-20 07:02:00,43.0,36.3,29.32,SW,233,0.0,0.0,77,0.00,,,0.00,LWC V2.10 B1813,2013-01-20 13:02:00,
2013-01-20 07:07:00,43.0,36.3,29.32,WSW,252,0.0,0.0,77,0.00,,,0.00,LWC V2.10 B1813,2013-01-20 13:07:00,
2013-01-20 07:12:00,43.0,36.3,29.32,WSW,257,0.0,0.0,77,0.00,,,0.00,LWC V2.10 B1813,2013-01-20 13:12:00,
2013-01-20 07:17:00,42.8,36.1,29.32,West,281,0.0,0.0,77,0.00,,,0.00,LWC V2.10 B1813,2013-01-20 13:17:00,
2013-01-20 07:22:00,42.8,36.1,29.32,WNW,282,0.0,0.0,77,0.00,,,0.00,LWC V2.10 B1813,2013-01-20 13:22:00,
2013-01-20 07:27:00,42.3,35.6,29.32,WNW,282,0.0,0.0,77,0.00,,,0.00,LWC V2.10 B1813,2013-01-20 13:27:00,
2013-01-20 07:32:00,42.3,35.6,29.32,WNW,282,0.0,0.0,77,0.00,,,0.00,LWC V2.10 B1813,2013-01-20 13:32:00,
2013-01-20 07:37:00,42.1,35.7,29.32,WNW,282,0.0,0.0,78,0.00,,,0.00,LWC V2.10 B1813,2013-01-20 13:37:00,
2013-01-20 07:42:00,42.1,35.7,29.32,WNW,282,0.0,0.0,78,0.00,,,0.00,LWC V2.10 B1813,2013-01-20 13:42:00,
2013-01-20 07:47:00,41.7,35.4,29.32,SW,234,0.0,0.0,78,0.00,,,0.00,LWC V2.10 B1813,2013-01-20 13:47:00,
2013-01-20 07:52:00,41.5,35.2,29.32,SW,231,0.0,0.0,78,0.00,,,0.00,LWC V2.10 B1813,2013-01-20 13:52:00,
2013-01-20 07:57:00,41.7,35.7,29.32,SW,231,0.0,0.0,79,0.00,,,0.00,LWC V2.10 B1813,2013-01-20 13:57:00,
2013-01-20 08:02:00,42.3,36.2,29.32,SW,231,0.0,0.0,79,0.00,,,0.00,LWC V2.10 B1813,2013-01-20 14:02:00,
2013-01-20 08:07:00,42.4,36.1,29.32,SW,229,2.7,3.1,78,0.00,,,0.00,LWC V2.10 B1813,2013-01-20 14:07:00,
2013-01-20 08:12:00,42.4,36.1,29.32,SW,226,2.7,3.1,78,0.00,,,0.00,LWC V2.10 B1813,2013-01-20 14:12:00,
2013-01-20 08:17:00,42.6,36.2,29.32,SW,226,0.0,0.0,78,0.00,,,0.00,LWC V2.10 B1813,2013-01-20 14:17:00,
2013-01-20 08:22:00,42.8,36.1,29.32,West,269,0.0,0.0,77,0.00,,,0.00,LWC V2.10 B1813,2013-01-20 14:22:00,
2013-01-20 08:27:00,42.4,35.7,29.32,NW,318,2.2,3.1,77,0.00,,,0.00,LWC V2.10 B1813,2013-01-20 14:27:00,
2013-01-20 08:32:00,42.6,35.9,29.32,NW,318,0.0,0.0,77,0.00,,,0.00,LWC V2.10 B1813,2013-01-20 14:32:00,
2013-01-20 08:37:00,43.2,36.4,29.32,NW,317,0.0,0.0,77,0.00,,,0.00,LWC V2.10 B1813,2013-01-20 14:37:00,
2013-01-20 08:42:00,43.5,36.8,29.32,NW,318,0.0,0.0,77,0.00,,,0.00,LWC V2.10 B1813,2013-01-20 14:42:00,
2013-01-20 08:47:00,43.9,36.8,29.35,WNW,302,0.0,3.6,76,0.00,,,0.00,LWC V2.10 B1813,2013-01-20 14:47:00,
2013-01-20 08:52:00,44.1,37.0,29.35,NW,310,0.0,0.0,76,0.00,,,0.00,LWC V2.10 B1813,2013-01-20 14:52:00,
2013-01-20 08:57:00,44.1,37.0,29.35,NW,310,0.0,0.0,76,0.00,,,0.00,LWC V2.10 B1813,2013-01-20 14:57:00,
2013-01-20 09:02:00,44.2,36.8,29.35,NW,310,0.0,0.0,75,0.00,,,0.00,LWC V2.10 B1813,2013-01-20 15:02:00,
2013-01-20 09:07:00,45.0,37.5,29.35,NNW,328,2.2,2.2,75,0.00,,,0.00,LWC V2.10 B1813,2013-01-20 15:07:00,
2013-01-20 09:12:00,45.5,38.0,29.35,NW,314,0.0,2.2,75,0.00,,,0.00,LWC V2.10 B1813,2013-01-20 15:12:00,
2013-01-20 09:17:00,46.0,38.6,29.35,NW,310,0.0,0.0,75,0.00,,,0.00,LWC V2.10 B1813,2013-01-20 15:17:00,
2013-01-20 09:22:00,46.6,38.7,29.35,WNW,295,0.0,0.0,74,0.00,,,0.00,LWC V2.10 B1813,2013-01-20 15:22:00,
2013-01-20 09:27:00,47.1,39.3,29.35,WNW,295,0.0,0.0,74,0.00,,,0.00,LWC V2.10 B1813,2013-01-20 15:27:00,
2013-01-20 09:32:00,47.8,40.0,29.35,West,268,2.2,2.2,74,0.00,,,0.00,LWC V2.10 B1813,2013-01-20 15:32:00,
2013-01-20 09:37:00,47.5,39.6,29.35,WSW,237,2.7,3.6,74,0.00,,,0.00,LWC V2.10 B1813,2013-01-20 15:37:00,
2013-01-20 09:42:00,47.5,39.6,29.35,SW,220,2.7,3.6,74,0.00,,,0.00,LWC V2.10 B1813,2013-01-20 15:42:00,
2013-01-20 09:47:00,48.0,40.1,29.35,WNW,283,2.2,4.9,74,0.00,,,0.00,LWC V2.10 B1813,2013-01-20 15:47:00,
2013-01-20 09:52:00,49.1,40.8,29.35,West,278,2.7,3.6,73,0.00,,,0.00,LWC V2.10 B1813,2013-01-20 15:52:00,
2013-01-20 09:57:00,49.8,41.5,29.35,West,278,0.0,3.6,73,0.00,,,0.00,LWC V2.10 B1813,2013-01-20 15:57:00,
2013-01-20 10:02:00,50.4,41.3,29.35,NW,305,2.7,3.6,71,0.00,,,0.00,LWC V2.10 B1813,2013-01-20 16:02:00,
2013-01-20 10:07:00,51.1,41.6,29.35,West,263,0.0,3.6,70,0.00,,,0.00,LWC V2.10 B1813,2013-01-20 16:07:00,
2013-01-20 10:12:00,51.4,41.6,29.35,SW,235,0.0,2.7,69,0.00,,,0.00,LWC V2.10 B1813,2013-01-20 16:12:00,
2013-01-20 10:17:00,53.1,43.2,29.35,SW,235,0.0,0.0,69,0.00,,,0.00,LWC V2.10 B1813,2013-01-20 16:17:00,
2013-01-20 10:22:00,54.0,43.3,29.35,West,280,3.1,3.1,67,0.00,,,0.00,LWC V2.10 B1813,2013-01-20 16:22:00,
2013-01-20 10:27:00,54.7,43.1,29.35,NW,326,0.0,2.2,65,0.00,,,0.00,LWC V2.10 B1813,2013-01-20 16:27:00,
2013-01-20 10:32:00,55.6,43.2,29.35,NW,308,0.0,0.0,63,0.00,,,0.00,LWC V2.10 B1813,2013-01-20 16:32:00,
2013-01-20 10:37:00,55.9,43.1,29.35,West,279,2.2,2.7,62,0.00,,,0.00,LWC V2.10 B1813,2013-01-20 16:37:00,
2013-01-20 10:42:00,56.1,42.9,29.35,WNW,291,0.0,3.6,61,0.00,,,0.00,LWC V2.10 B1813,2013-01-20 16:42:00,
2013-01-20 10:47:00,56.8,43.1,29.35,WSW,246,0.0,3.1,60,0.00,,,0.00,LWC V2.10 B1813,2013-01-20 16:47:00,
2013-01-20 10:52:00,57.7,43.9,29.35,WSW,242,2.7,2.7,60,0.00,,,0.00,LWC V2.10 B1813,2013-01-20 16:52:00,
2013-01-20 10:57:00,58.3,44.5,29.35,West,268,0.0,0.0,60,0.00,,,0.00,LWC V2.10 B1813,2013-01-20 16:57:00,
2013-01-20 11:02:00,58.5,44.2,29.35,WNW,285,2.2,3.6,59,0.00,,,0.00,LWC V2.10 B1813,2013-01-20 17:02:00,
2013-01-20 11:07:00,59.2,44.4,29.35,SW,232,3.6,3.6,58,0.00,,,0.00,LWC V2.10 B1813,2013-01-20 17:07:00,
2013-01-20 11:12:00,59.4,44.1,29.35,West,260,5.8,5.8,57,0.00,,,0.00,LWC V2.10 B1813,2013-01-20 17:12:00,
2013-01-20 11:17:00,59.5,44.3,29.35,WNW,286,4.0,5.4,57,0.00,,,0.00,LWC V2.10 B1813,2013-01-20 17:17:00,
2013-01-20 11:22:00,60.3,45.0,29.35,WSW,241,3.6,4.9,57,0.00,,,0.00,LWC V2.10 B1813,2013-01-20 17:22:00,
2013-01-20 11:27:00,60.8,44.5,29.35,SW,216,5.8,5.8,55,0.00,,,0.00,LWC V2.10 B1813,2013-01-20 17:27:00,
2013-01-20 11:32:00,61.0,44.2,29.35,SW,231,4.5,6.3,54,0.00,,,0.00,LWC V2.10 B1813,2013-01-20 17:32:00,
2013-01-20 11:37:00,61.5,44.7,29.35,SW,225,3.6,5.4,54,0.00,,,0.00,LWC V2.10 B1813,2013-01-20 17:37:00,
2013-01-20 11:42:00,62.2,44.9,29.35,West,267,2.7,3.6,53,0.00,,,0.00,LWC V2.10 B1813,2013-01-20 17:42:00,
2013-01-20 11:47:00,62.6,44.7,29.32,WNW,301,4.0,4.0,52,0.00,,,0.00,LWC V2.10 B1813,2013-01-20 17:47:00,
2013-01-20 11:52:00,63.3,45.4,29.32,WSW,249,5.4,5.4,52,0.00,,,0.00,LWC V2.10 B1813,2013-01-20 17:52:00,
2013-01-20 11:57:00,63.3,44.9,29.32,West,270,4.0,5.4,51,0.00,,,0.00,LWC V2.10 B1813,2013-01-20 17:57:00,
2013-01-20 12:02:00,64.0,45.5,29.32,WNW,291,0.0,3.1,51,0.00,,,0.00,LWC V2.10 B1813,2013-01-20 18:02:00,
2013-01-20 12:07:00,63.9,44.9,29.32,SW,225,5.4,5.8,50,0.00,,,0.00,LWC V2.10 B1813,2013-01-20 18:07:00,
2013-01-20 12:12:00,64.6,45.5,29.32,SW,223,3.1,4.9,50,0.00,,,0.00,LWC V2.10 B1813,2013-01-20 18:12:00,
2013-01-20 12:17:00,65.7,46.5,29.32,West,259,0.0,3.1,50,0.00,,,0.00,LWC V2.10 B1813,2013-01-20 18:17:00,
2013-01-20 12:22:00,65.1,45.5,29.32,WSW,246,3.1,3.1,49,0.00,,,0.00,LWC V2.10 B1813,2013-01-20 18:22:00,
2013-01-20 12:27:00,66.0,45.8,29.32,WSW,254,4.9,7.6,48,0.00,,,0.00,LWC V2.10 B1813,2013-01-20 18:27:00,
2013-01-20 12:32:00,66.4,45.5,29.29,SW,219,3.6,3.6,47,0.00,,,0.00,LWC V2.10 B1813,2013-01-20 18:32:00,
2013-01-20 12:37:00,67.1,46.2,29.29,WSW,240,5.4,6.3,47,0.00,,,0.00,LWC V2.10 B1813,2013-01-20 18:37:00,
2013-01-20 12:42:00,67.3,45.8,29.29,SW,221,5.4,6.3,46,0.00,,,0.00,LWC V2.10 B1813,2013-01-20 18:42:00,
2013-01-20 12:47:00,67.5,45.9,29.29,SW,222,4.0,5.4,46,0.00,,,0.00,LWC V2.10 B1813,2013-01-20 18:47:00,
2013-01-20 12:52:00,68.2,46.0,29.29,SW,229,2.2,4.9,45,0.00,,,0.00,LWC V2.10 B1813,2013-01-20 18:52:00,
2013-01-20 12:57:00,68.9,46.1,29.29,SW,235,0.0,4.9,44,0.00,,,0.00,LWC V2.10 B1813,2013-01-20 18:57:00,
2013-01-20 13:02:00,69.4,46.6,29.26,SW,231,4.0,5.8,44,0.00,,,0.00,LWC V2.10 B1813,2013-01-20 19:02:00,
2013-01-20 13:07:00,68.9,45.5,29.26,SW,231,4.0,6.3,43,0.00,,,0.00,LWC V2.10 B1813,2013-01-20 19:07:00,
2013-01-20 13:12:00,68.7,45.3,29.26,WNW,293,3.1,4.9,43,0.00,,,0.00,LWC V2.10 B1813,2013-01-20 19:12:00,
2013-01-20 13:17:00,69.6,46.1,29.26,WNW,285,0.0,4.9,43,0.00,,,0.00,LWC V2.10 B1813,2013-01-20 19:17:00,
2013-01-20 13:22:00,70.3,45.5,29.26,SSE,159,5.4,6.3,41,0.00,,,0.00,LWC V2.10 B1813,2013-01-20 19:22:00,
2013-01-20 13:27:00,70.0,45.2,29.26,SSW,206,3.6,3.6,41,0.00,,,0.00,LWC V2.10 B1813,2013-01-20 19:27:00,
2013-01-20 13:32:00,70.2,44.7,29.26,SSE,158,3.1,3.6,40,0.00,,,0.00,LWC V2.10 B1813,2013-01-20 19:32:00,
2013-01-20 13:37:00,70.7,45.2,29.26,South,173,4.0,4.0,40,0.00,,,0.00,LWC V2.10 B1813,2013-01-20 19:37:00,
2013-01-20 13:42:00,70.9,45.3,29.26,West,261,2.7,5.4,40,0.00,,,0.00,LWC V2.10 B1813,2013-01-20 19:42:00,
2013-01-20 13:47:00,71.1,45.5,29.24,NE,46,2.7,5.4,40,0.00,,,0.00,LWC V2.10 B1813,2013-01-20 19:47:00,
2013-01-20 13:52:00,71.4,44.5,29.24,SW,230,8.1,8.1,38,0.00,,,0.00,LWC V2.10 B1813,2013-01-20 19:52:00,
2013-01-20 13:57:00,70.5,43.7,29.24,West,279,6.3,8.1,38,0.00,,,0.00,LWC V2.10 B1813,2013-01-20 19:57:00,
2013-01-20 14:02:00,70.9,44.7,29.24,WNW,282,4.0,6.3,39,0.00,,,0.00,LWC V2.10 B1813,2013-01-20 20:02:00,
2013-01-20 14:07:00,71.4,44.5,29.24,WSW,237,8.1,8.1,38,0.00,,,0.00,LWC V2.10 B1813,2013-01-20 20:07:00,
2013-01-20 14:12:00,71.4,44.5,29.24,SW,219,3.1,4.0,38,0.00,,,0.00,LWC V2.10 B1813,2013-01-20 20:12:00,
2013-01-20 14:17:00,71.4,44.5,29.24,SW,215,3.6,3.6,38,0.00,,,0.00,LWC V2.10 B1813,2013-01-20 20:17:00,
2013-01-20 14:22:00,71.8,44.1,29.24,SW,231,2.7,3.6,37,0.00,,,0.00,LWC V2.10 B1813,2013-01-20 20:22:00,
2013-01-20 14:27:00,72.3,45.3,29.24,West,280,4.0,4.9,38,0.00,,,0.00,LWC V2.10 B1813,2013-01-20 20:27:00,
2013-01-20 14:32:00,72.3,44.6,29.24,NW,307,2.2,4.0,37,0.00,,,0.00,LWC V2.10 B1813,2013-01-20 20:32:00,
2013-01-20 14:37:00,73.0,45.2,29.24,SW,226,2.7,3.1,37,0.00,,,0.00,LWC V2.10 B1813,2013-01-20 20:37:00,
2013-01-20 14:42:00,72.9,45.1,29.24,ENE,63,3.6,6.3,37,0.00,,,0.00,LWC V2.10 B1813,2013-01-20 20:42:00,
2013-01-20 14:47:00,72.7,44.9,29.24,ESE,117,2.2,4.0,37,0.00,,,0.00,LWC V2.10 B1813,2013-01-20 20:47:00,
2013-01-20 14:52:00,72.9,45.1,29.24,SSW,212,4.0,4.0,37,0.00,,,0.00,LWC V2.10 B1813,2013-01-20 20:52:00,
2013-01-20 14:57:00,72.3,43.9,29.24,WSW,241,5.8,8.3,36,0.00,,,0.00,LWC V2.10 B1813,2013-01-20 20:57:00,
2013-01-20 15:02:00,72.1,43.7,29.20,West,271,2.2,2.7,36,0.00,,,0.00,LWC V2.10 B1813,2013-01-20 21:02:00,
2013-01-20 15:07:00,72.9,44.3,29.20,WSW,258,2.2,3.6,36,0.00,,,0.00,LWC V2.10 B1813,2013-01-20 21:07:00,
2013-01-20 15:12:00,73.4,44.1,29.20,SSW,213,3.1,5.8,35,0.00,,,0.00,LWC V2.10 B1813,2013-01-20 21:12:00,
2013-01-20 15:17:00,73.2,44.6,29.20,SSE,154,4.0,5.8,36,0.00,,,0.00,LWC V2.10 B1813,2013-01-20 21:17:00,
2013-01-20 15:22:00,73.0,43.8,29.20,SSW,211,4.9,5.4,35,0.00,,,0.00,LWC V2.10 B1813,2013-01-20 21:22:00,
2013-01-20 15:27:00,72.9,43.6,29.20,South,185,4.0,5.8,35,0.00,,,0.00,LWC V2.10 B1813,2013-01-20 21:27:00,
2013-01-20 15:32:00,72.9,43.6,29.20,South,185,2.7,7.2,35,0.00,,,0.00,LWC V2.10 B1813,2013-01-20 21:32:00,
2013-01-20 15:37:00,72.7,43.4,29.20,SW,218,0.0,2.2,35,0.00,,,0.00,LWC V2.10 B1813,2013-01-20 21:37:00,
2013-01-20 15:42:00,73.4,44.1,29.20,SSW,210,0.0,4.0,35,0.00,,,0.00,LWC V2.10 B1813,2013-01-20 21:42:00,
2013-01-20 15:47:00,73.4,44.1,29.20,SSE,155,3.6,5.4,35,0.00,,,0.00,LWC V2.10 B1813,2013-01-20 21:47:00,
2013-01-20 15:52:00,73.0,43.8,29.20,SSE,157,5.4,5.4,35,0.00,,,0.00,LWC V2.10 B1813,2013-01-20 21:52:00,
2013-01-20 15:57:00,72.9,43.6,29.20,SSW,203,8.1,8.1,35,0.00,,,0.00,LWC V2.10 B1813,2013-01-20 21:57:00,
2013-01-20 16:02:00,72.3,43.1,29.20,ESE,111,3.6,4.9,35,0.00,,,0.00,LWC V2.10 B1813,2013-01-20 22:02:00,
2013-01-20 16:07:00,72.1,42.2,29.20,SSE,168,3.1,8.3,34,0.00,,,0.00,LWC V2.10 B1813,2013-01-20 22:07:00,
2013-01-20 16:12:00,72.0,42.0,29.20,South,171,5.8,8.1,34,0.00,,,0.00,LWC V2.10 B1813,2013-01-20 22:12:00,
2013-01-20 16:17:00,72.0,42.0,29.20,ESE,109,2.7,5.8,34,0.00,,,0.00,LWC V2.10 B1813,2013-01-20 22:17:00,
2013-01-20 16:22:00,71.8,41.9,29.20,SSE,158,5.8,7.6,34,0.00,,,0.00,LWC V2.10 B1813,2013-01-20 22:22:00,
2013-01-20 16:27:00,71.6,41.7,29.20,SSW,208,2.2,5.8,34,0.00,,,0.00,LWC V2.10 B1813,2013-01-20 22:27:00,
2013-01-20 16:32:00,71.8,42.6,29.20,SSE,163,3.1,5.8,35,0.00,,,0.00,LWC V2.10 B1813,2013-01-20 22:32:00,
2013-01-20 16:37:00,71.4,42.3,29.20,SSE,156,4.9,5.4,35,0.00,,,0.00,LWC V2.10 B1813,2013-01-20 22:37:00,
2013-01-20 16:42:00,71.6,42.5,29.20,SE,125,5.4,7.6,35,0.00,,,0.00,LWC V2.10 B1813,2013-01-20 22:42:00,
2013-01-20 16:47:00,71.4,42.3,29.20,South,189,6.7,6.7,35,0.00,,,0.00,LWC V2.10 B1813,2013-01-20 22:47:00,
2013-01-20 16:52:00,71.1,42.0,29.20,SSW,192,3.1,7.6,35,0.00,,,0.00,LWC V2.10 B1813,2013-01-20 22:52:00,
2013-01-20 16:57:00,70.9,41.9,29.20,SSW,194,3.1,6.3,35,0.00,,,0.00,LWC V2.10 B1813,2013-01-20 22:57:00,
2013-01-20 17:02:00,70.9,41.9,29.20,SSW,205,4.0,8.3,35,0.00,,,0.00,LWC V2.10 B1813,2013-01-20 23:02:00,
2013-01-20 17:07:00,70.3,41.4,29.20,South,176,5.8,5.8,35,0.00,,,0.00,LWC V2.10 B1813,2013-01-20 23:07:00,
2013-01-20 17:12:00,70.2,41.9,29.20,SSE,148,5.8,6.7,36,0.00,,,0.00,LWC V2.10 B1813,2013-01-20 23:12:00,
2013-01-20 17:17:00,69.8,41.6,29.20,SSE,148,3.6,7.2,36,0.00,,,0.00,LWC V2.10 B1813,2013-01-20 23:17:00,
2013-01-20 17:22:00,69.4,41.3,29.20,South,172,4.0,9.6,36,0.00,,,0.00,LWC V2.10 B1813,2013-01-20 23:22:00,
2013-01-20 17:27:00,69.1,41.0,29.20,SSE,147,4.9,8.7,36,0.00,,,0.00,LWC V2.10 B1813,2013-01-20 23:27:00,
2013-01-20 17:32:00,68.7,40.7,29.20,SSW,213,5.4,6.3,36,0.00,,,0.00,LWC V2.10 B1813,2013-01-20 23:32:00,
2013-01-20 17:37:00,68.4,40.4,29.20,South,179,2.7,8.3,36,0.00,,,0.00,LWC V2.10 B1813,2013-01-20 23:37:00,
2013-01-20 17:42:00,68.0,40.0,29.20,South,190,7.2,7.2,36,0.00,,,0.00,LWC V2.10 B1813,2013-01-20 23:42:00,
2013-01-20 17:47:00,67.6,40.4,29.20,SE,143,4.0,7.6,37,0.00,,,0.00,LWC V2.10 B1813,2013-01-20 23:47:00,
2013-01-20 17:52:00,67.1,40.0,29.20,SE,145,3.6,7.6,37,0.00,,,0.00,LWC V2.10 B1813,2013-01-20 23:52:00,
2013-01-20 17:57:00,66.6,39.5,29.20,South,184,2.7,5.8,37,0.00,,,0.00,LWC V2.10 B1813,2013-01-20 23:57:00,
2013-01-20 18:02:00,66.0,39.7,29.20,South,176,5.8,5.8,38,0.00,,,0.00,LWC V2.10 B1813,2013-01-21 00:02:00,
2013-01-20 18:07:00,65.7,39.4,29.20,SSE,152,6.3,6.3,38,0.00,,,0.00,LWC V2.10 B1813,2013-01-21 00:07:00,
2013-01-20 18:12:00,65.1,38.9,29.20,SSE,155,2.7,4.9,38,0.00,,,0.00,LWC V2.10 B1813,2013-01-21 00:12:00,
2013-01-20 18:17:00,64.6,38.4,29.20,ESE,117,5.4,5.4,38,0.00,,,0.00,LWC V2.10 B1813,2013-01-21 00:17:00,
2013-01-20 18:22:00,64.2,38.7,29.20,SSE,149,3.1,5.4,39,0.00,,,0.00,LWC V2.10 B1813,2013-01-21 00:22:00,
2013-01-20 18:27:00,64.2,38.7,29.20,SSE,153,3.6,3.6,39,0.00,,,0.00,LWC V2.10 B1813,2013-01-21 00:27:00,
2013-01-20 18:32:00,63.9,39.1,29.20,SE,126,3.1,3.6,40,0.00,,,0.00,LWC V2.10 B1813,2013-01-21 00:32:00,
2013-01-20 18:37:00,63.5,38.7,29.20,SE,144,3.1,5.4,40,0.00,,,0.00,LWC V2.10 B1813,2013-01-21 00:37:00,
2013-01-20 18:42:00,63.0,38.3,29.20,ESE,117,4.0,4.0,40,0.00,,,0.00,LWC V2.10 B1813,2013-01-21 00:42:00,
2013-01-20 18:47:00,62.8,38.7,29.20,SE,135,6.3,6.3,41,0.00,,,0.00,LWC V2.10 B1813,2013-01-21 00:47:00,
2013-01-20 18:52:00,62.2,38.9,29.20,ESE,114,4.9,5.8,42,0.00,,,0.00,LWC V2.10 B1813,2013-01-21 00:52:00,
2013-01-20 18:57:00,62.1,38.7,29.20,SE,145,3.1,4.9,42,0.00,,,0.00,LWC V2.10 B1813,2013-01-21 00:57:00,
2013-01-20 19:02:00,61.7,39.0,29.20,ESE,110,3.6,4.9,43,0.00,,,0.00,LWC V2.10 B1813,2013-01-21 01:02:00,
2013-01-20 19:07:00,61.5,38.8,29.20,ESE,106,3.6,4.9,43,0.00,,,0.00,LWC V2.10 B1813,2013-01-21 01:07:00,
2013-01-20 19:12:00,61.5,39.4,29.20,East,90,3.1,7.2,44,0.00,,,0.00,LWC V2.10 B1813,2013-01-21 01:12:00,
2013-01-20 19:17:00,61.3,39.2,29.20,East,89,3.6,4.0,44,0.00,,,0.00,LWC V2.10 B1813,2013-01-21 01:17:00,
2013-01-20 19:22:00,61.2,39.1,29.20,ESE,104,5.4,7.6,44,0.00,,,0.00,LWC V2.10 B1813,2013-01-21 01:22:00,
2013-01-20 19:27:00,61.2,39.7,29.20,ESE,108,4.0,4.0,45,0.00,,,0.00,LWC V2.10 B1813,2013-01-21 01:27:00,
2013-01-20 19:32:00,61.0,39.5,29.20,SE,139,3.1,6.3,45,0.00,,,0.00,LWC V2.10 B1813,2013-01-21 01:32:00,
2013-01-20 19:37:00,60.8,39.9,29.20,ESE,116,2.7,4.9,46,0.00,,,0.00,LWC V2.10 B1813,2013-01-21 01:37:00,
2013-01-20 19:42:00,60.6,39.7,29.20,East,92,4.5,4.9,46,0.00,,,0.00,LWC V2.10 B1813,2013-01-21 01:42:00,
2013-01-20 19:47:00,60.6,40.3,29.24,ESE,118,2.7,5.4,47,0.00,,,0.00,LWC V2.10 B1813,2013-01-21 01:47:00,
2013-01-20 19:52:00,60.4,40.1,29.24,ESE,116,3.1,4.9,47,0.00,,,0.00,LWC V2.10 B1813,2013-01-21 01:52:00,
2013-01-20 19:57:00,60.4,40.1,29.24,ESE,111,3.6,4.0,47,0.00,,,0.00,LWC V2.10 B1813,2013-01-21 01:57:00,
2013-01-20 20:02:00,60.3,40.5,29.24,ESE,112,3.6,4.0,48,0.00,,,0.00,LWC V2.10 B1813,2013-01-21 02:02:00,
2013-01-20 20:07:00,60.1,40.3,29.24,SE,135,3.6,4.0,48,0.00,,,0.00,LWC V2.10 B1813,2013-01-21 02:07:00,
2013-01-20 20:13:00,59.9,40.2,29.24,SE,143,2.7,3.6,48,0.00,,,0.00,LWC V2.10 B1813,2013-01-21 02:13:00,
2013-01-20 20:18:00,59.7,40.0,29.24,SSE,165,4.0,4.0,48,0.00,,,0.00,LWC V2.10 B1813,2013-01-21 02:18:00,
2013-01-20 20:23:00,59.4,40.2,29.24,ESE,102,2.2,4.0,49,0.00,,,0.00,LWC V2.10 B1813,2013-01-21 02:23:00,
2013-01-20 20:28:00,59.4,40.2,29.24,SE,135,3.1,3.6,49,0.00,,,0.00,LWC V2.10 B1813,2013-01-21 02:28:00,
2013-01-20 20:33:00,59.2,40.0,29.24,SE,139,0.0,4.5,49,0.00,,,0.00,LWC V2.10 B1813,2013-01-21 02:33:00,
2013-01-20 20:38:00,59.2,40.6,29.24,ESE,121,3.1,3.1,50,0.00,,,0.00,LWC V2.10 B1813,2013-01-21 02:38:00,
2013-01-20 20:43:00,59.0,40.4,29.24,East,95,4.9,4.9,50,0.00,,,0.00,LWC V2.10 B1813,2013-01-21 02:43:00,
2013-01-20 20:48:00,58.8,40.2,29.24,ESE,120,3.1,4.5,50,0.00,,,0.00,LWC V2.10 B1813,2013-01-21 02:48:00,
2013-01-20 20:53:00,59.0,40.4,29.24,SE,126,2.2,4.0,50,0.00,,,0.00,LWC V2.10 B1813,2013-01-21 02:53:00,
2013-01-20 20:58:00,59.0,40.9,29.24,SE,143,3.1,6.3,51,0.00,,,0.00,LWC V2.10 B1813,2013-01-21 02:58:00,
2013-01-20 21:03:00,59.0,40.9,29.24,SSE,150,2.7,4.9,51,0.00,,,0.00,LWC V2.10 B1813,2013-01-21 03:03:00,
2013-01-20 21:08:00,59.0,40.9,29.24,SSE,157,2.7,5.4,51,0.00,,,0.00,LWC V2.10 B1813,2013-01-21 03:08:00,
2013-01-20 21:13:00,59.0,40.9,29.24,SE,139,3.6,5.4,51,0.00,,,0.00,LWC V2.10 B1813,2013-01-21 03:13:00,
2013-01-20 21:18:00,59.2,41.1,29.24,ESE,120,3.6,5.8,51,0.00,,,0.00,LWC V2.10 B1813,2013-01-21 03:18:00,
2013-01-20 21:23:00,59.2,41.6,29.24,SE,133,4.0,5.4,52,0.00,,,0.00,LWC V2.10 B1813,2013-01-21 03:23:00,
2013-01-20 21:28:00,59.0,41.4,29.24,SE,124,3.1,4.9,52,0.00,,,0.00,LWC V2.10 B1813,2013-01-21 03:28:00,
2013-01-20 21:33:00,58.8,41.2,29.24,SE,136,2.7,5.4,52,0.00,,,0.00,LWC V2.10 B1813,2013-01-21 03:33:00,
2013-01-20 21:38:00,58.8,41.2,29.24,ESE,116,3.6,3.6,52,0.00,,,0.00,LWC V2.10 B1813,2013-01-21 03:38:00,
2013-01-20 21:43:00,58.6,41.6,29.24,SE,126,3.1,4.0,53,0.00,,,0.00,LWC V2.10 B1813,2013-01-21 03:43:00,
2013-01-20 21:48:00,58.6,41.6,29.24,SSE,168,0.0,2.7,53,0.00,,,0.00,LWC V2.10 B1813,2013-01-21 03:48:00,
2013-01-20 21:53:00,58.3,41.2,29.24,SSE,150,0.0,0.0,53,0.00,,,0.00,LWC V2.10 B1813,2013-01-21 03:53:00,
2013-01-20 21:58:00,58.3,41.2,29.24,SSE,149,0.0,0.0,53,0.00,,,0.00,LWC V2.10 B1813,2013-01-21 03:58:00,
2013-01-20 22:03:00,58.3,41.2,29.24,SSE,149,0.0,0.0,53,0.00,,,0.00,LWC V2.10 B1813,2013-01-21 04:03:00,
2013-01-20 22:08:00,58.3,41.2,29.24,SSE,149,0.0,0.0,53,0.00,,,0.00,LWC V2.10 B1813,2013-01-21 04:08:00,
2013-01-20 22:13:00,58.3,41.7,29.24,SSE,157,0.0,0.0,54,0.00,,,0.00,LWC V2.10 B1813,2013-01-21 04:13:00,
2013-01-20 22:18:00,58.1,41.5,29.24,SSE,157,0.0,0.0,54,0.00,,,0.00,LWC V2.10 B1813,2013-01-21 04:18:00,
2013-01-20 22:23:00,57.9,41.4,29.24,SSE,167,0.0,0.0,54,0.00,,,0.00,LWC V2.10 B1813,2013-01-21 04:23:00,
2013-01-20 22:28:00,57.9,41.8,29.26,South,175,0.0,0.0,55,0.00,,,0.00,LWC V2.10 B1813,2013-01-21 04:28:00,
2013-01-20 22:33:00,57.7,41.7,29.26,South,170,0.0,0.0,55,0.00,,,0.00,LWC V2.10 B1813,2013-01-21 04:33:00,
2013-01-20 22:38:00,57.7,41.7,29.26,South,170,0.0,0.0,55,0.00,,,0.00,LWC V2.10 B1813,2013-01-21 04:38:00,
2013-01-20 22:43:00,57.6,41.5,29.26,South,170,0.0,0.0,55,0.00,,,0.00,LWC V2.10 B1813,2013-01-21 04:43:00,
2013-01-20 22:48:00,57.6,42.0,29.24,South,170,0.0,0.0,56,0.00,,,0.00,LWC V2.10 B1813,2013-01-21 04:48:00,
2013-01-20 22:53:00,57.6,42.0,29.24,SSE,163,0.0,0.0,56,0.00,,,0.00,LWC V2.10 B1813,2013-01-21 04:53:00,
2013-01-20 22:58:00,57.4,41.8,29.24,SSE,160,0.0,0.0,56,0.00,,,0.00,LWC V2.10 B1813,2013-01-21 04:58:00,
2013-01-20 23:00:00,57.4,42.3,29.24,SSE,165,0.0,0.0,57,0.00,,,0.00,LWC V2.10 B1813,2013-01-21 05:00:00,
2013-01-20 23:01:00,57.4,42.3,29.24,South,169,0.0,0.0,57,0.00,,,0.00,LWC V2.10 B1813,2013-01-21 05:01:00,
2013-01-20 23:06:00,57.6,42.4,29.24,SSW,197,0.0,0.0,57,0.00,,,0.00,LWC V2.10 B1813,2013-01-21 05:06:00,
2013-01-20 23:11:00,57.6,42.4,29.24,SSW,198,0.0,0.0,57,0.00,,,0.00,LWC V2.10 B1813,2013-01-21 05:11:00,
2013-01-20 23:16:00,57.7,42.6,29.24,SSW,211,2.2,3.1,57,0.00,,,0.00,LWC V2.10 B1813,2013-01-21 05:16:00,
2013-01-20 23:21:00,57.9,42.3,29.24,SW,231,0.0,2.7,56,0.00,,,0.00,LWC V2.10 B1813,2013-01-21 05:21:00,
2013-01-20 23:26:00,57.7,42.6,29.24,SSW,209,3.6,4.0,57,0.00,,,0.00,LWC V2.10 B1813,2013-01-21 05:26:00,
2013-01-20 23:31:00,57.6,42.4,29.24,South,176,2.2,2.2,57,0.00,,,0.00,LWC V2.10 B1813,2013-01-21 05:31:00,
2013-01-20 23:36:00,57.6,42.4,29.24,SSW,196,2.7,3.1,57,0.00,,,0.00,LWC V2.10 B1813,2013-01-21 05:36:00,
2013-01-20 23:42:00,57.2,42.6,29.24,South,190,0.0,0.0,58,0.00,,,0.00,LWC V2.10 B1813,2013-01-21 05:42:00,
2013-01-20 23:47:00,56.7,42.0,29.24,South,190,0.0,0.0,58,0.00,,,0.00,LWC V2.10 B1813,2013-01-21 05:47:00,
2013-01-20 23:52:00,56.3,42.2,29.24,South,190,0.0,0.0,59,0.00,,,0.00,LWC V2.10 B1813,2013-01-21 05:52:00,
2013-01-20 23:57:00,56.1,42.0,29.24,South,190,0.0,0.0,59,0.00,,,0.00,LWC V2.10 B1813,2013-01-21 05:57:00,